星链-5820 (STARLINK-5820 )

导读

STARLINK-5820是美国SpaceX公司星链(Starlink)卫星互联网项目的一员,于2023年3月3日发射入轨。星链项目旨在构建全球低轨卫星互联网星座,为全球偏远地区提供低延迟高速宽带服务。该卫星属于量产型低轨通信卫星,采用平板设计、氪工质霍尔推进器,具备自主避撞能力,设计寿命约5-7年,退役后会再入大气层烧毁。

基本信息
目录编号:
55781
目录名称:
STARLINK-5820
国际标识:
2023-028AS
轨道中心:
EARTH
卫星名称:
星链-5820
卫星全名:
星链-5820 (STARLINK-5820 )
卫星状态:
在轨 (已飞行1291 天)
发射日期:
2023-03-03 UTC
国别 :
美国 (US)
星等 :
--
该卫星已列入 空间交会检测服务 Space Conjunction Data Service (SCDS) ,当前飞行风险评估等级: 高风险
轨道信息
数据来源 国际轨道数据 AOE轨道数据
星历时间 2026-09-14T08:10:53+0800
19小时前
查看轨道信息
2026-09-11T23:00:00+0800
3天前
查看轨道信息
半长轴 6950.17km 6950.195km
偏心率 0.0002736 0.0002744
轨道倾角 69.999° 69.999°
近地点辐角 266.743° 269.205°
升交点赤经 109.582° 115.589°
平近点角 93.341° 202.963°
近地点 570.131km 570.15km
远地点 573.935km 573.966km
周期 96.107分钟 96.107分钟
每日圈数 14.983375 14.983295
详细信息
固有亮度:
5
最大亮度:
2.5
卫星平台:
Starlink v1.5
覆盖范围:
全球
运营商:
太空探索技术公司
运营商所在国:
美国
制造商(研发单位):
太空探索技术公司
制造商所在国:
美国
使用方式:
暂无
卫星简介
星链(Starlink)计划是由太空探索技术公司(SpaceX)提出的一个巨型低轨卫星互联网星座项目,计划在2019年至2024年间在太空搭建由约1.2万颗卫星组成的“星链”网络,其中1584颗将部署在地球上空550千米处的近地轨道,并从2020年开始工作。该卫星仍在工作。
2D轨道图
3D轨道图
轨道高度分析图
轨道倾角分析图
轨道综合分析图
查看轨道综合分析图
与全量物体交会距离演化趋势 订阅飞行安全评估服务
与全量物体交会风险概率演化趋势 订阅飞行安全评估服务